Location: Unspecified
(0.0000°N, 0.0000°E)
Time: 23:53:48
(UTC+00:00)

Courier 1B Rocket - Pass Details

Date: 09 October 2020
Orbit: 920 x 1202 km, 28.2° (Epoch: 28 October)

Event Time Altitude Azimuth Distance (km) Brightness Sun altitude
Rises 23:31:06 0° 260° (W) 4,094 - -82.2°
Reaches altitude 10° 23:34:17 10° 268° (W) 3,124 - -82.6°
Maximum altitude 23:41:12 35° 331° (NNW) 1,804 - -83.1°
Drops below altitude 10° 23:47:54 10° 34° (NE) 3,008 - -83.3°
Sets 23:50:55 0° 44° (NE) 3,926 - -83.2°
